Regional Weather Roundup
Issued by NWS

Home | Current Version | Previous Version | Graphics & Text | Print | Product List | Glossary On
Versions: 1 2 3 4 5 6 7 8 9 10 11 12 13 14 15 16 17 18 19 20 21 22 23 24 25 26 27 28 29 30 31 32 33 34 35 36 37 38 39 40 41 42 43 44 45 46 47 48 49 50
000
ASUS45 KSLC 261010
RWRUT

UTAH REGIONAL WEATHER ROUNDUP
NATIONAL WEATHER SERVICE SALT LAKE CITY UT
300 AM MST THU FEB 26 2015

UTZ001>011-023>025-261100-

NORTHERN UTAH

CITY           SKY/WX    TMP DP  RH WIND       PRES   REMARKS
BRIGHAM CITY   CLOUDY    29  21  71 NE3       30.02F
HILL AFB       CLOUDY    33  17  50 E15       30.00F WCI  23
LOGAN          CLEAR     27  22  81 CALM      30.02F
OGDEN          CLOUDY    33  19  56 S7        30.00F WCI  27
PROVO AIRPORT  CLOUDY    30  19  64 CALM      30.02F
SALT LAKE CITY CLOUDY    36  21  54 SE7       30.00F WCI  30
VERNAL         CLEAR     20  13  74 N3        30.06F
WENDOVER       CLOUDY    34  18  51 CALM      30.02F
HEBER CITY     MOCLDY    25  18  74 CALM      30.02F
WEST JORDAN    CLEAR     34  19  55 SW7       30.01F WCI  28

$$

UTZ012>022-026-027-261100-

SOUTHERN/CENTRAL UTAH

CITY           SKY/WX    TMP DP  RH WIND       PRES   REMARKS
BLANDING       PTCLDY    27  17  66 NE5       30.08F WCI  22
BRYCE CANYON   PTCLDY    12   6  77 W8        30.04F WCI   0
CEDAR CITY     PTCLDY    25  17  72 E5        30.01F WCI  19
DELTA          CLOUDY    28  16  61 CALM      30.01F
HANKSVILLE     PTCLDY    32  25  74 NW3       30.04F
MILFORD        MOCLDY    29  15  56 S3        30.01F
MOAB/CYNLANDS  CLEAR     32  20  61 VRB3      30.02F
PRICE          CLEAR     24   9  52 NE8       30.00F WCI  15
ST GEORGE      PTSUNNY   41  30  65 CALM      30.01F
KANAB          CLEAR     28  23  80 NE6       30.06F WCI  22

$$

REGIONAL REPORTS     COLORADO/ARIZONA

CITY           SKY/WX    TMP DP  RH WIND       PRES   REMARKS
CRAIG, CO      CLOUDY    15  12  88 N3        30.06F
GRAND JUNCTION CLEAR     25  18  74 E3        30.03F
RIFLE          CLEAR     24  16  71 CALM      30.07S
MONTROSE       PTCLDY    20  17  88 S6        30.07S WCI  12
CORTEZ         CLEAR     22  20  92 SE3       30.00F
PAGE, AZ       CLEAR     40  25  55 SW5       29.99S
GRAND CANYON   CLEAR     24  21  88 CALM      30.04F
KINGMAN        CLEAR     37  27  67 S5        29.99S WCI  33
FLAGSTAFF      PTCLDY    25  16  68 SW6       30.05F WCI  18

$$

REGIONAL REPORTS    NEVADA/IDAHO/WYOMING

CITY           SKY/WX    TMP DP  RH WIND       PRES   REMARKS
LAS VEGAS, NV  PTCLDY    51  33  50 SW7       29.92S
ELY            CLOUDY    26   8  46 S12       30.03F WCI  16
ELKO           CLOUDY    36  16  44 CALM      30.03F
POCATELLO, ID  MOCLDY    26  18  71 NE6       30.02F WCI  19
BURLEY         CLOUDY    33  21  61 VRB3      29.99F
EVANSTON, WY   PTCLDY    21  15  78 S5        29.99F WCI  15
ROCK SPRINGS   PTCLDY    12   6  77 E5        30.05F WCI   4

$$



USA.gov is the U.S. government's official web portal to all federal, state and local government web resources and services.